Погода в Жуковке

Погода в Жуковке : погода сейчас, прогноз погоды и архив. Всё, что Вы хотите узнать о погоде в Жуковке!

Хотите узнать прогноз погоды в Жуковке? Тогда Вам сюда: Погода в Жуковке

Поиск расширенной информации на нашем сайте:

Другие новости

Новости СМИ2

Главная страница сайта

Новости сайта

03.07.2017

Напоминаем, что на нашем специализированном сайте Метеоцентр.Азия вы можете получить высокодетализированные автоматические прогнозы погоды по пунктам России, СНГ и мира в авиационном формате (включающие направление и скорость ветра, видимость, явления погоды, количество и форму облачности, нижнюю и верхнюю границу облачности).


Погода в Жуковке - сегодня

Время (UTC), дата Ветер
(°,м/с) 
Видим.   Явления Облачность Т
(°С)
Тd
(°С)
f(%) Тe
(°С)
Pmin
(гПа)
dP
(гПа)
Po
(мм)
O2
(г/м3)
Тmin Tmax R s Состояние
почвы
12 20.10.17 360 (С) 20000 м    4/3 1000 м средняя, верхняя 
[Cu med, cong|Ac trans|Ci fib]
+9.9 -1.7 44 +9  1022.5  -0.7  751  292           
15 20.10.17 320 (СЗ) 15000 м    4/0 средняя, верхняя 
[Ac trans|Ci fib]
+5.6 -1.7 59 +6  1022.5  -0.4  750  296           
18 20.10.17 тихо ()   8000 м  дымка  ясно 
+0.1 -1 92 1023.2  0.2  751  302    +10.2       
21 20.10.17 тихо ()   7000 м  дымка  ясно 
-1.1 -1.8 95 -1  1023  -0.2  750  304           
00 21.10.17 тихо ()   6000 м  дымка  8/0 средняя 
[Ac trans]
-0.9 -1.6 95 -1  1022.2  -0.8  750  303           
03 21.10.17 010 (С) 6000 м  дымка  6/0 средняя 
[Ac trans]
-0.3 -0.9 96 921.5  -0.7  749  302  -1.7         
06 21.10.17 010 (С) 8000 м  дымка  8/0 средняя 
[Ac trans]
+1.2 +0.1 92 +1  1021.7  0.5  750  301  -1.7         
09 21.10.17 350 (С) 12000 м    8/0 средняя, верхняя 
[Ac trans|Ci fib]
+4.5 +1.2 79 +5  1021.3  -0.3  749  297           
12 21.10.17 060 (СВ) 20000 м    6/0 средняя, верхняя 
[Ac trans|Ci fib]
+6.7 -3.4 48 +7  1019.5  -1.5  748  295           
15 21.10.17 тихо ()   15000 м    8/0 средняя, верхняя 
[Ac trans|Cc]
+3.5 -1.5 70 +4  1018.8  -0.9  748  298           
18 21.10.17 010 (С) 8000 м  дымка  ясно 
-2.4 -3.6 91 -2  1019.3  748  304    +7.3       
21 21.10.17 010 (С) 7000 м  дымка  6/0 средняя 
[Ac trans]
-1.1 -2.1 93 -1  1019.3  0.1  748  303           
00 22.10.17 010 (С) 7000 м  дымка  10/0 средняя 
[Ac und]
+0.1 -0.8 94 -1  1019.3  0.1  748  301           
03 22.10.17 010 (С) 6000 м  дымка  3/0 средняя 
[Ac trans]
-2.4 -3 96 -2  1019.8  0.3  748  304  -3.1         
06 22.10.17 010 (С) 7000 м  дымка  8/0 средняя 
[Ac trans]
-0.8 -2.1 91 -2  1020.6  0.9  749  303  -3.6         
09 22.10.17 050 (СВ) 20000 м    8/4 600 м средняя 
[Sc|Ac trans]
+2.5 -6.1 53 +2  1021.2  0.8  749  300           
12 22.10.17 300 (СЗ) 20000 м    3/3 1000 м 
[Sc]
+4.3 -7.2 43 +4  1020.8  -0.1  749  298           
15 22.10.17 тихо ()   20000 м    ясно 
+0.5 -6 62 +1  1020.5  -0.7  749  302           
18 22.10.17 тихо ()   8000 м  дымка  ясно 
-4.5 -5.4 93 -5  1021.1  0.2  749  307    +4.7       
21 22.10.17 тихо ()   7000 м  дымка  ясно 
-5.7 -6.4 95 -6  1021.2  749  309           
00 23.10.17 140 (ЮВ) 7000 м  дымка  ясно 
-6.7 -7.6 93 -6  1021.4  0.1  749  310           
03 23.10.17 230 (ЮЗ) 6000 м  дымка  8/0 средняя 
[Ac trans]
-4.6 -5.5 93 -4  1021.4  0.2  749  308  -7.1         
06 23.10.17 тихо ()   9000 м  дымка  9/9 960 м 
[Sc]
-2.4 -4 89 -2  1021.5  0.2  749  305  -7.1         
09 23.10.17 тихо ()   15000 м    8/0 средняя 
[Ac trans]
+2.1 -4.7 61 +2  1021.8  0.7  750  300           
12 23.10.17 340 (С) 20000 м    4/0 средняя, верхняя 
[Ac trans|Cc]
+3.1 -6 51 +4  1021.8  0.1  750  299           
Время (UTC), дата Ветер
(°,м/с) 
Видим.   Явления Облачность Т
(°С)
Тd
(°С)
f(%) Тe
(°С)
Pmin
(гПа)
dP
(гПа)
Po
(мм)
O2
(г/м3)
Тmin Tmax R s Состояние
почвы

Для получения пояснительной информации подведите курсор к названию столбца.

ПОГОДА в Жуковке - архив

Всё, что Вы хотите узнать о погоде в Жуковке - удобно и подробно!

Выберите нужную дату (начиная с 1 января 2015* года) и нажмите кнопку "Найти".
Будут отображены архивные сводки погоды по пункту Жуковка, начиная с указанной даты.


Отображать данные в формате CSV (для использования в таблицах Excel)


Внимание! Наш архив погоды предназначен исключительно для личного некоммерческого использования в познавательных целях. Если Вам необходимы официальные справки о состоянии погоды (для производственных, юридических, коммерческих и т.п. целей), обращайтесь в органы Росгидромета.

*Примечание: данная дата относится к архиву по метеостанциям СССР (Россия, СНГ, Балтия).
Архив по метеостанциям Зарубежной Европы и Азии (кроме Китая) хранится 10 дней, по другим регионам земного шара (Китай, Африка, Америка, Австралия, Океания) - 1 день.

Жуковка - район местоположения метеостанции


Название, широта, долгота, высота метеостанции:
Жуковка 53.5°ш. 33.8°д. 177 м над ур. моря [Российская Федерация]

Дополнительная информация

В oтличие oт бoльшинства пoгoдных сайтoв мы публикуем пoдрoбную метеoинфoрмацию в детальнoм прoфессиoнальнoм фoрмате.

Характеристики температуры и влажнoсти вoздуха измеряются на высoте 2 м в тени вдали oт зданий и деревьев.
Скoрoсть ветра измеряется на высoте 10 м (на урoвне рoста челoвека скoрoсть ветра ниже в 1.5-2 раза). Если метеoстанция нахoдится в гoрoде или в лесу, тo скoрoсть ветра занижена на 2-4 м/с пo сравнению с oткрытым местoм. Скoрoсть ветра над акватoриями крупных рек и oзёр, а также на вершинах хoлмoв на 2-5 м/с выше, чем в oбычных услoвиях.
Атмoсфернoе давление в разных тoчках местнoсти мoжет значительнo oтличаться oт давления на метеoстанции, в зависимoсти oт услoвий рельефа (при пoдъёме на 10 м давление пoнижается примернo на 1 мм рт.ст.).